Location: La Pernelle
(49.6188°N, 1.2999°W)
Time: 11:13:28
(UTC+00:00)

Meteor 2-20 - Pass Details

Date: 26 October 2021
Orbit: 939 x 958 km, 82.5° (Epoch: 08 December)

Event Time Altitude Azimuth Distance (km) Brightness Sun altitude
Rises 04:44:37 0° 168° (SSE) 3,606 7.6 -19.9°
Reaches altitude 10° 04:47:11 10° 162° (SSE) 2,662 7.0 -19.5°
Maximum altitude 04:52:56 47° 91° (E) 1,243 5.5 -18.6°
Drops below altitude 10° 04:58:43 10° 20° (NNE) 2,670 7.1 -17.7°
Sets 05:01:17 0° 15° (NNE) 3,617 7.7 -17.2°
